User: anonymous   Login
Location: Zagreb
(45.8000°N, 16.0000°E)
Time: 03:58:48
(UTC+01:00)
Language:

YUBILEINY - Orbit

View from above orbital plane
View from above orbital plane
View from above satellite
View from above satellite

Ground track
Ground track

The orbit data is extracted from the following two-line orbital elements,

1 32953U 08025A   21018.85095288  .00000028  00000-0  12906-3 0  9995
2 32953  82.5048 143.9776 0018540 303.8644  56.0670 12.43099428574398
Epoch (UTC): 18 January 2021 20:25:22
Eccentricity: 0.0018540
inclination: 82.5048°
perigee height: 1479 km
apogee height: 1508 km
right ascension of ascending node: 143.9776°
argument of perigee: 303.8644°
revolutions per day: 12.43099428
mean anomaly at epoch: 56.0670°
orbit number at epoch: 57439

The dashed part of the orbit path shows where the satellite is in the earth's shadow,  

DLR